Regional Weather Roundup
Issued by NWS

Home | Current Version | Previous Version | Text Only | Print | Product List | Glossary On
Versions: 1 2 3 4 5 6 7 8 9 10 11 12 13 14 15 16 17 18 19 20 21 22 23 24 25 26 27 28 29 30 31 32 33 34 35 36 37 38 39 40 41 42 43 44 45 46 47 48 49 50
000
ASUS43 KLSX 291459
RWRMO

WEATHER SUMMARY FOR MISSOURI
NATIONAL WEATHER SERVICE SPRINGFIELD MO
1000 AM CDT FRI AUG 29 2014

NOTE: "FAIR" INDICATES FEW OR NO CLOUDS BELOW 12,000 FEET WITH NO
       SIGNIFICANT WEATHER AND/OR OBSTRUCTIONS TO VISIBILITY.
       CURRENT SKY AND/OR WEATHER CONDITIONS ARE NOT AVAILABLE FOR
       CHILLICOTHE AND FARMINGTON.

MOZ001>031-035>038-043-044-053-054-291600-
...NORTHERN AND WESTERN MISSOURI...

CITY           SKY/WX    TMP DP  RH WIND       PRES   REMARKS
KANSAS CTY INT PTSUNNY   80  67  64 SW10      29.88R
KANSAS C DTWN  MOSUNNY   82  67  60 SW10      29.86F
LEE`S SUMMIT   MOSUNNY   78  67  68 S13       29.89S
ST JOSEPH      PTSUNNY   75  68  78 SW9       29.86R
KIRKSVILLE     SUNNY     79  68  69 S13       29.91F

$$
MOZ066>068-077>081-088>096-101>105-291600-
...SOUTHWEST MISSOURI...

CITY           SKY/WX    TMP DP  RH WIND       PRES   REMARKS
SPRINGFIELD    MOSUNNY   82  66  58 S15       29.93S
JOPLIN         CLOUDY    74  71  91 SW8       29.93R

$$
MOZ032>034-039>042-045>050-055>058-069>072-291600-
...CENTRAL MISSOURI...

CITY           SKY/WX    TMP DP  RH WIND       PRES   REMARKS
COLUMBIA       SUNNY     81  65  58 S13       29.93F
JEFFERSON CITY SUNNY     82  65  56 S10       29.92F
ROLLA          SUNNY     83  63  50 S10       29.95F
SEDALIA        SUNNY     83  67  58 S12       29.92S
OSAGE BEACH    SUNNY     81  64  57 SE8       29.94S

$$
MOZ051-052-059>065-291600-
...EAST CENTRAL MISSOURI...

CITY           SKY/WX    TMP DP  RH WIND       PRES   REMARKS
ST LOUIS INTL  MOSUNNY   85  72  65 SW10      29.97S HX  91
SPIRIT OF STL  MOSUNNY   81  72  74 S6        29.95S
ST CHARLES     SUNNY     81  72  74 S6        29.96R

$$
MOZ072>076-082>087-097>100-106>115-291600-
...SOUTH CENTRAL AND SOUTHEAST MISSOURI...

CITY           SKY/WX    TMP DP  RH WIND       PRES   REMARKS
CAPE GIRARDEAU SUNNY     81  74  79 S5        29.99R
FARMINGTON     CLOUDY    75  72  88 S5        30.02R
POPLAR BLUFF   SUNNY     82  70  66 SW7       29.97R
WEST PLAINS    SUNNY     81  65  58 S10       30.00S

$$


USA.gov is the U.S. government's official web portal to all federal, state and local government web resources and services.